Weather in Pon'goma

Russia / Republic of Karelia     65°20′42″N   34°24′32″E
temp.,
°C
wind,
m/s
gust,
m/s
humid.,
%
clouds,
%
prec.,
mm/h
press.,
hPa
HPBL,
m
3 march, wed
wed300:00−7wnw6108818 0.0 1006132
03:00−7w699220 0.0 1005125
06:00−7wnw699275 0.0 1003129
09:00−5wnw599487 0.0 1002203
12:00−4wnw689199 0.3 1000467
15:00−4nw5788100 0.5 999475
18:00−5nnw3597100 0.3 99899
21:00−9n459495 0.4 99836
4 march, thu
thu400:00−11nnw559245 0.0 99955
03:00−12nw459236 0.0 100047
06:00−12nw459349 0.0 99951
09:00−12nw459338 0.0 100060
12:00−8nw579032 0.0 999237
15:00−6nw478952 0.0 1000384
18:00−7n5995100 0.3 1000351
21:00−11n61088100 0.4 1002187
5 march, fri
fri500:00−12n5990100 0.0 1004160
03:00−15nnw579198 0.0 100592
06:00−16nnw459048 0.0 100647
09:00−16nw348563 0.0 100729
12:00−11wnw348897 0.0 1008196
15:00−9nnw349098 0.1 1009224
18:00−12wnw339369 0.0 100927
21:00−11wnw569175 0.0 100964
6 march, sat
sat600:00−13wnw569226 0.0 100963
03:00−14wnw459213 0.0 100943
06:00−16w349514 0.0 100830
09:00−15w44929 0.0 100637
12:00−12sw34901 0.0 1003151
15:00−10s359136 0.0 1000172
18:00−11sse4695100 0.0 99694
21:00−10se5994100 0.0 993184
7 march, sun
sun700:00−10ese6994100 0.1 991273
03:00−11ene81193100 0.4 991397
06:00−11ene101494100 0.6 992573
09:00−15ne111594100 1.1 995500
12:00−16nne101494100 0.2 998569
15:00−15nne111590100 0.4 1001670
18:00−16nne91585100 0.1 1003537
21:00−17nne9148568 0.1 1005335